[[{"header":{"parameterUnit":"m.s-1","parameterCategory":2,"la1":30.2991,"la2":30.254,"lo1":-89.0895,"lo2":-89.0444,"dy":0.0017,"dx":0.0017,"nx":28,"ny":28,"refTime":"2026-01-06T03:00:00:Z","depth":"0","parameterNumber":2,"parameterNumberName":"U-component_of_CURRENTS"},"data":[0,0,0,0,0,0,0,0,0,0,0,0,0,0,0,0,0,0,0,0,0,0,0,0,0,0,0,0,0,0,0,0,0,0,0,0,0,0,0,0,0,0,0,0,0,0,0,0,0,0,0,0,0,0,0,0,0,0,0.3352,0.3351,0,0.3279,0.3279,0.3278,0.3267,0.3267,0.3268,0.3268,0.3293,0.3293,0.3293,0,0,0,0,0,0,0,0,0,0,0,0,0,0.3502,0.3499,0.3352,0.3351,0.335,0.3279,0.3279,0.3278,0.3266,0.3267,0.3268,0.3269,0.3293,0.3293,0.3293,0,0,0,0,0,0,0,0,0,0,0,0,0,0.3434,0.3498,0.3352,0.3335,0.3333,0.328,0.3278,0.3277,0.3266,0.3267,0.3268,0.3269,0.3293,0.3293,0.3293,0.3276,0,0,0.3293,0.3293,0,0,0,0,0,0,0,0,0.3438,0.3429,0.3339,0.3337,0.3334,0.3282,0.334,0.3282,0.3266,0.3292,0.3268,0.3269,0.3297,0.3297,0.3281,0.3278,0.3279,0.3293,0.3293,0.3294,0.3294,0,0,0,0,0,0,0,0.3443,0.3432,0.3324,0.3338,0.3335,0.3339,0.333,0.3329,0.3293,0.329,0.3289,0.3279,0.3297,0.3281,0.3282,0.3279,0.3293,0.3294,0.3294,0.3294,0.3282,0.3281,0,0,0,0,0,0,0.3447,0.3436,0.3326,0.3322,0.3388,0.3335,0.3325,0.3299,0.3291,0.329,0.3279,0.3279,0.328,0.3281,0.3283,0.3303,0.3294,0.3294,0.3294,0.3282,0.3282,0.3281,0,0,0,0,0,0,0.3451,0.3438,0.3329,0.3378,0.3365,0.3331,0.3301,0.3297,0.3286,0.3281,0.3282,0.3274,0.3281,0.3282,0.3277,0.3303,0.3294,0.3294,0.3283,0.3282,0.3281,0.332,0,0,0,0,0,0,0.3455,0.3439,0.3432,0.3378,0.3362,0.3303,0.33,0.3295,0.3278,0.3278,0.3277,0.328,0.3282,0.3276,0.3277,0.3303,0.3294,0.3283,0.3282,0.3282,0.3319,0.3321,0.3322,0,0,0,0,0,0.346,0.3446,0.3431,0.3419,0.3348,0.3302,0.3295,0.3276,0.3277,0.3271,0.3264,0.328,0.3272,0.3275,0.3276,0.3304,0.3283,0.3282,0.3282,0.3318,0.332,0.3322,0,0,0,0,0,0,0.3506,0.3442,0.3425,0.3391,0.3352,0.3301,0.3297,0.3277,0.3263,0.327,0.3268,0.3269,0.3278,0.3273,0.3276,0.3294,0.3284,0.3283,0.3311,0.3313,0.3314,0.3363,0.3294,0,0,0,0,0,0.351,0.349,0.3424,0.3403,0.3382,0.3339,0.3323,0.3301,0.3276,0.3271,0.3267,0.3266,0.3271,0.3277,0.3274,0.328,0.3337,0.3297,0.3298,0.33,0.3337,0.3444,0.3461,0.3278,0.3278,0.3278,0,0,0.3525,0.3489,0.3477,0.3414,0.3385,0.336,0.3332,0.3303,0.3296,0.3278,0.3279,0.327,0.327,0.3278,0.3283,0.3281,0.3375,0.3299,0.33,0.3338,0.3445,0.3464,0.348,0.3277,0.3277,0.3278,0,0,0.3551,0.3506,0.3501,0.3463,0.3415,0.3382,0.3374,0.3319,0.3312,0.3295,0.329,0.3295,0.3287,0.33,0.3306,0.3312,0.3376,0.3305,0.3362,0.3464,0.3482,0.3498,0.3578,0.3601,0.331,0.331,0.331,0,0.3578,0.3545,0.3495,0.3475,0.3454,0.3396,0.3383,0.336,0.3315,0.3336,0.3305,0.3337,0.3308,0.3367,0.3349,0.3323,0.339,0.3359,0.3473,0.349,0.3506,0.3584,0.361,0.3312,0.3312,0.3312,0.3312,0,0.3585,0.3566,0.3559,0.3517,0.349,0.3464,0.3416,0.3406,0.3389,0.3386,0.343,0.3399,0.3442,0.341,0.3372,0.3469,0.3481,0.3464,0.3482,0.3528,0.3605,0.3631,0.3315,0.3314,0.3313,0.3313,0,0,0.3619,0.3577,0.3573,0.357,0.3504,0.3483,0.3482,0.3479,0.3527,0.3496,0.358,0.3542,0.3563,0.357,0.3543,0.3592,0.3711,0.3573,0.3578,0.3678,0.3949,0.3841,0.3858,0.3733,0.3738,0.3742,0.3952,0,0.3641,0.3632,0.36,0.3597,0.3581,0.3542,0.356,0.3559,0.3571,0.3637,0.3644,0.3704,0.3618,0.3652,0.3695,0.3717,0.3786,0.3657,0.3869,0.3875,0.3795,0.3886,0.3664,0.3823,0.3978,0.3982,0.3985,0,0.3636,0.3639,0.3637,0.365,0.3645,0.3641,0.368,0.3689,0.3764,0.3794,0.3873,0.3895,0.3968,0.3881,0.4014,0.3948,0.3963,0.3965,0.3974,0.3889,0.3816,0.3803,0.3865,0.3762,0.4026,0.4022,0.402,0,0.3657,0.3658,0.3667,0.3654,0.3659,0.3679,0.3693,0.3746,0.3795,0.3918,0.3999,0.4101,0.4168,0.4227,0.4205,0.4148,0.4349,0.4279,0.4209,0.4201,0.4061,0.4032,0.4073,0.4407,0.4406,0.4406,0.4405,0,0.3659,0.3669,0.3682,0.3679,0.3723,0.372,0.3794,0.3832,0.3938,0.4033,0.4099,0.4209,0.4261,0.4355,0.4327,0.4359,0.4471,0.4263,0.4267,0.4059,0.4028,0.3969,0.3916,0.4413,0.4412,0.441,0.4409,0,0.3652,0.3658,0.3673,0.3707,0.3718,0.3746,0.3819,0.3893,0.3998,0.4133,0.4188,0.4341,0.4457,0.449,0.4586,0.4512,0.4409,0.4521,0.4254,0.422,0.4004,0.3959,0.3905,0.3796,0.4501,0.45,0.4499,0,0.3642,0.3644,0.3678,0.37,0.3709,0.3759,0.3803,0.3897,0.3971,0.4198,0.4268,0.4446,0.4519,0.4634,0.4537,0.4529,0.4393,0.4328,0.4151,0.4003,0.3959,0.3803,0.3704,0.3986,0.3981,0.3977,0.3973,0,0.3632,0.3641,0.3664,0.3708,0.3744,0.3782,0.3848,0.3908,0.4042,0.4166,0.4332,0.4423,0.4504,0.4385,0.4361,0.4313,0.4093,0.4239,0.4176,0.3646,0.3395,0.3285,0.3833,0.3936,0.394,0.3942,0.3944,0.3946,0.363,0.3649,0.3687,0.3715,0.3753,0.3781,0.3778,0.3868,0.3964,0.4056,0.4238,0.4251,0.4217,0.4125,0.4073,0.382,0.3831,0.3659,0.3652,0.3535,0.331,0.3762,0.3797,0.38,0.3802,0.3804,0.3806,0,0.3618,0.3656,0.3697,0.3719,0.3714,0.3747,0.3786,0.3747,0.3785,0.387,0.3941,0.3834,0.3711,0.3644,0.3423,0.3253,0.3095,0.317,0.2914,0.2873,0.3368,0.3222,0.3021,0.3021,0.3021,0.3022,0.3022,0.3022,0.363,0.3657,0.3672,0.3657,0.3657,0.3581,0.3559,0.3516,0.3509,0.3401,0.3284,0.3266,0.3278,0.3176,0.2942,0.286,0.266,0.2498,0.2569,0.2922,0.2967,0.3009,0.2861,0.2587,0.2587,0.1908,0.1903,0.1899]},{"header":{"parameterUnit":"m.s-1","parameterCategory":2,"la1":30.2991,"la2":30.254,"lo1":-89.0895,"lo2":-89.0444,"dy":0.0017,"dx":0.0017,"nx":28,"ny":28,"refTime":"2026-01-06T03:00:00:Z","depth":"0","parameterNumber":3,"parameterNumberName":"V-component_of_CURRENTS"},"data":[0,0,0,0,0,0,0,0,0,0,0,0,0,0,0,0,0,0,0,0,0,0,0,0,0,0,0,0,0,0,0,0,0,0,0,0,0,0,0,0,0,0,0,0,0,0,0,0,0,0,0,0,0,0,0,0,0,0,0.0383,0.0383,0,0.037,0.037,0.0369,0.0347,0.0347,0.0347,0.0347,0.0289,0.0288,0.0286,0,0,0,0,0,0,0,0,0,0,0,0,0,0.0327,0.0329,0.0383,0.0383,0.0383,0.037,0.037,0.0369,0.0347,0.0347,0.0347,0.0347,0.0289,0.0288,0.0286,0,0,0,0,0,0,0,0,0,0,0,0,0,0.0334,0.0329,0.0383,0.0373,0.0372,0.037,0.037,0.0369,0.0347,0.0347,0.0347,0.0347,0.029,0.0288,0.0286,0.0277,0,0,0.0279,0.0278,0,0,0,0,0,0,0,0,0.0334,0.0336,0.0374,0.0374,0.0373,0.0363,0.0329,0.0337,0.0348,0.0354,0.0347,0.0347,0.0311,0.0308,0.0302,0.0275,0.0272,0.0279,0.0278,0.0277,0.0276,0,0,0,0,0,0,0,0.0334,0.0336,0.0375,0.0374,0.0374,0.0348,0.0349,0.033,0.0331,0.0353,0.0352,0.0355,0.031,0.0304,0.0301,0.0271,0.0279,0.0277,0.0276,0.0275,0.0244,0.0244,0,0,0,0,0,0,0.0345,0.0336,0.0376,0.0375,0.0356,0.035,0.0351,0.0364,0.0332,0.0328,0.0356,0.0355,0.0308,0.0303,0.0298,0.0305,0.0277,0.0275,0.0274,0.0243,0.0244,0.0244,0,0,0,0,0,0,0.0344,0.0349,0.0376,0.0356,0.0359,0.0352,0.0366,0.0364,0.0362,0.0335,0.033,0.0358,0.0308,0.0301,0.0292,0.0301,0.0274,0.0272,0.0243,0.0243,0.0244,0.0305,0,0,0,0,0,0,0.0342,0.0349,0.0356,0.0358,0.036,0.0384,0.0367,0.0364,0.0366,0.0364,0.0335,0.0329,0.0307,0.0295,0.0289,0.0298,0.0271,0.0242,0.0243,0.0244,0.0303,0.0308,0.0312,0,0,0,0,0,0.034,0.0359,0.0357,0.0362,0.0374,0.0385,0.0384,0.0375,0.0366,0.0371,0.0353,0.033,0.0296,0.0294,0.0287,0.0295,0.0242,0.0243,0.0244,0.03,0.0307,0.0312,0,0,0,0,0,0,0.0337,0.0359,0.0357,0.038,0.0385,0.0383,0.0387,0.0381,0.037,0.0367,0.0337,0.033,0.0323,0.0302,0.03,0.0288,0.0264,0.0264,0.031,0.0315,0.032,0.0342,0.0269,0,0,0,0,0,0.0342,0.0363,0.0373,0.0391,0.0396,0.0391,0.0393,0.039,0.0384,0.0379,0.0359,0.0337,0.0321,0.0313,0.0294,0.0289,0.0284,0.0289,0.0294,0.0298,0.0311,0.0319,0.0326,0.0247,0.0247,0.0247,0,0,0.0345,0.036,0.037,0.0391,0.0393,0.0415,0.0392,0.0403,0.0417,0.0373,0.0379,0.0352,0.0323,0.0319,0.0314,0.0303,0.0317,0.03,0.0304,0.0314,0.0321,0.0329,0.0336,0.0248,0.0248,0.0248,0,0,0.037,0.0377,0.0405,0.0414,0.0428,0.043,0.0437,0.0438,0.0434,0.0435,0.0408,0.0393,0.0366,0.0353,0.0342,0.0362,0.0341,0.0349,0.0393,0.0401,0.0408,0.0414,0.0416,0.0422,0.0354,0.0354,0.0354,0,0.0373,0.0415,0.0412,0.0441,0.0458,0.0443,0.0477,0.0471,0.0466,0.0472,0.0445,0.0424,0.0386,0.0398,0.0395,0.0374,0.0374,0.0375,0.0409,0.0415,0.042,0.0421,0.0427,0.0357,0.0356,0.0356,0.0356,0,0.0422,0.0452,0.0469,0.0507,0.052,0.0546,0.0546,0.0549,0.0538,0.0535,0.0537,0.0493,0.0489,0.0463,0.0429,0.0449,0.0436,0.0415,0.0399,0.0432,0.043,0.0435,0.0361,0.036,0.0359,0.0358,0,0,0.0445,0.0498,0.0504,0.0538,0.056,0.0583,0.0601,0.0626,0.0657,0.0625,0.0666,0.0608,0.0591,0.0577,0.0537,0.0524,0.054,0.0485,0.0483,0.0495,0.056,0.0531,0.0533,0.0529,0.053,0.0531,0.0544,0,0.049,0.0565,0.0574,0.0642,0.0685,0.0677,0.0705,0.0716,0.0718,0.0749,0.0704,0.0723,0.0636,0.0644,0.0617,0.057,0.0556,0.0539,0.0518,0.0518,0.0495,0.0538,0.0528,0.0536,0.0548,0.0549,0.0549,0,0.0539,0.059,0.0666,0.0733,0.075,0.078,0.0835,0.086,0.0881,0.0885,0.0888,0.0865,0.085,0.0771,0.0714,0.0711,0.064,0.0588,0.0587,0.0545,0.0498,0.0504,0.0544,0.0419,0.0557,0.0556,0.0555,0,0.0576,0.0654,0.0723,0.0744,0.081,0.0837,0.0869,0.09,0.0948,0.0986,0.1037,0.1003,0.1024,0.0928,0.0812,0.0773,0.0751,0.0689,0.0595,0.0592,0.0572,0.0565,0.0497,0.0649,0.0649,0.0649,0.0649,0,0.0629,0.0683,0.0747,0.0786,0.0874,0.0893,0.0985,0.1005,0.1071,0.1169,0.1122,0.1205,0.1065,0.1033,0.0885,0.0774,0.0815,0.062,0.0601,0.0591,0.0586,0.0464,0.038,0.0649,0.0649,0.0649,0.0649,0,0.066,0.0699,0.0786,0.0865,0.0895,0.0957,0.1063,0.1136,0.1187,0.1319,0.1347,0.1376,0.1348,0.1193,0.1065,0.09,0.069,0.0714,0.0707,0.0687,0.0451,0.037,0.0281,0.0217,0.0611,0.061,0.061,0,0.0686,0.0734,0.0841,0.0901,0.094,0.1036,0.1112,0.1183,0.1277,0.1442,0.1522,0.1549,0.1606,0.1405,0.1119,0.0878,0.0719,0.0682,0.0587,0.0453,0.0351,0.0291,0.024,0.0584,0.0583,0.0583,0.0582,0,0.0736,0.0768,0.0841,0.0964,0.1052,0.1169,0.1285,0.1379,0.15,0.1645,0.1836,0.1904,0.1728,0.1508,0.1153,0.0959,0.058,0.0662,0.0536,0.0338,0.0259,0.0185,0.0553,0.0578,0.0578,0.0578,0.0579,0.0579,0.0768,0.0825,0.0919,0.1036,0.1145,0.1292,0.1406,0.1564,0.1761,0.1999,0.2054,0.22,0.1841,0.1374,0.1093,0.056,0.0557,0.0385,0.0305,0.0263,0.0179,0.0532,0.0523,0.0523,0.0524,0.0524,0.0524,0,0.0812,0.0882,0.0989,0.1133,0.1261,0.1314,0.152,0.1663,0.1925,0.2158,0.2346,0.225,0.1815,0.1329,0.0606,0.0264,0.013,0.0086,-0.0003,-0.0035,0.0298,0.0273,0.0196,0.0196,0.0196,0.0197,0.0197,0.0197,0.0841,0.0941,0.0998,0.1203,0.1312,0.1503,0.163,0.1868,0.2069,0.2357,0.2457,0.2497,0.2097,0.0902,0.0133,-0.0031,-0.0252,-0.0316,-0.0407,-0.0192,-0.017,-0.0149,-0.0191,-0.0364,-0.0365,-0.0702,-0.0705,-0.0708]}],[{"header":{"parameterUnit":"m.s-1","parameterCategory":2,"la1":30.2991,"la2":30.254,"lo1":-89.0895,"lo2":-89.0444,"dy":0.0017,"dx":0.0017,"nx":28,"ny":28,"refTime":"2026-01-06T03:00:00:Z","depth":"2","parameterNumber":2,"parameterNumberName":"U-component_of_CURRENTS"},"data":[0,0,0,0,0,0,0,0,0,0,0,0,0,0,0,0,0,0,0,0,0,0,0,0,0,0,0,0,0,0,0,0,0,0,0,0,0,0,0,0,0,0,0,0,0,0,0,0,0,0,0,0,0,0,0,0,0,0,0.2587,0.2588,0,0.2605,0.2605,0.2604,0.2606,0.2606,0.2607,0.2607,0.2597,0.2596,0.2596,0,0,0,0,0,0,0,0,0,0,0,0,0,0.2555,0.2556,0.2587,0.2588,0.2588,0.2605,0.2605,0.2604,0.2606,0.2606,0.2607,0.2607,0.2597,0.2596,0.2596,0,0,0,0,0,0,0,0,0,0,0,0,0,0.2567,0.2556,0.2587,0.2594,0.2595,0.2605,0.2605,0.2604,0.2606,0.2606,0.2607,0.2607,0.2597,0.2596,0.2596,0.2586,0,0,0.2594,0.2593,0,0,0,0,0,0,0,0,0.2566,0.2568,0.2592,0.2594,0.2595,0.2607,0.259,0.2598,0.2606,0.2598,0.2607,0.2607,0.26,0.2599,0.2597,0.2586,0.2585,0.2594,0.2593,0.2593,0.2593,0,0,0,0,0,0,0,0.2566,0.2567,0.259,0.2593,0.2595,0.2597,0.2598,0.2591,0.2594,0.2599,0.26,0.2608,0.26,0.2597,0.2596,0.2585,0.2594,0.2593,0.2593,0.2592,0.2618,0.262,0,0,0,0,0,0,0.2571,0.2566,0.259,0.2591,0.2585,0.2597,0.2599,0.26,0.2594,0.2595,0.2608,0.2608,0.2598,0.2597,0.2596,0.2627,0.2593,0.2592,0.2592,0.2617,0.2619,0.262,0,0,0,0,0,0,0.257,0.2572,0.2589,0.2583,0.2585,0.2598,0.2599,0.26,0.2609,0.2602,0.2602,0.2617,0.2598,0.2597,0.2603,0.2625,0.2592,0.2591,0.2616,0.2618,0.2619,0.2661,0,0,0,0,0,0,0.2569,0.2572,0.2577,0.2583,0.2586,0.2599,0.2599,0.26,0.2615,0.2616,0.261,0.2609,0.2598,0.2604,0.2602,0.2623,0.2591,0.2615,0.2617,0.2619,0.2659,0.2664,0.2669,0,0,0,0,0,0.2567,0.2573,0.2577,0.258,0.2591,0.26,0.2601,0.2609,0.2615,0.2618,0.262,0.261,0.2616,0.2604,0.2602,0.2623,0.2614,0.2616,0.2619,0.2656,0.2663,0.2669,0,0,0,0,0,0,0.2564,0.2574,0.2578,0.2587,0.2597,0.2602,0.2611,0.2616,0.262,0.2626,0.2616,0.2615,0.2632,0.2621,0.2608,0.2639,0.2616,0.2618,0.2646,0.2652,0.2657,0.2674,0.259,0,0,0,0,0,0.2566,0.257,0.2582,0.259,0.2598,0.2607,0.2614,0.262,0.2626,0.2628,0.2625,0.2629,0.2638,0.264,0.2641,0.265,0.2671,0.2665,0.2671,0.2675,0.2689,0.275,0.2762,0.2628,0.2628,0.2628,0,0,0.2565,0.2574,0.2576,0.2589,0.2598,0.2615,0.2611,0.2627,0.2643,0.2626,0.2644,0.2645,0.2645,0.2661,0.2668,0.2655,0.2724,0.2678,0.2682,0.2694,0.2754,0.2767,0.2779,0.263,0.2629,0.2629,0,0,0.2568,0.2577,0.2584,0.2597,0.2619,0.2627,0.2636,0.2648,0.2655,0.2672,0.2672,0.2689,0.269,0.27,0.2705,0.274,0.2751,0.274,0.2778,0.2837,0.2849,0.2859,0.2901,0.2915,0.2741,0.2741,0.2741,0,0.2568,0.258,0.2587,0.2606,0.2621,0.2636,0.2653,0.2665,0.2677,0.2695,0.2684,0.2724,0.2714,0.2754,0.2764,0.2753,0.2785,0.2752,0.2845,0.2856,0.2866,0.2906,0.2921,0.2744,0.2743,0.2743,0.2743,0,0.2583,0.2596,0.2605,0.2631,0.2647,0.2664,0.2687,0.2708,0.2723,0.274,0.2782,0.2779,0.281,0.2806,0.2792,0.286,0.2859,0.2847,0.283,0.2883,0.2921,0.2936,0.2747,0.2746,0.2745,0.2745,0,0,0.2566,0.2604,0.2607,0.2623,0.2663,0.2673,0.2715,0.2752,0.2792,0.281,0.2861,0.2875,0.2891,0.2898,0.2892,0.2929,0.3015,0.292,0.2922,0.2964,0.3147,0.3063,0.3071,0.3027,0.303,0.3032,0.3143,0,0.2574,0.2599,0.2623,0.2655,0.267,0.2708,0.2743,0.2786,0.2823,0.2876,0.2904,0.2944,0.2922,0.2941,0.2984,0.3019,0.3058,0.2986,0.3088,0.3091,0.3013,0.3087,0.2824,0.2895,0.3158,0.316,0.3162,0,0.2578,0.2595,0.2619,0.2665,0.2677,0.2708,0.2778,0.2813,0.2899,0.293,0.2996,0.3023,0.3096,0.3056,0.3169,0.3131,0.3146,0.3159,0.3164,0.3083,0.3036,0.2886,0.2912,0.3187,0.3185,0.3183,0.3181,0,0.2547,0.2591,0.2605,0.2622,0.268,0.2713,0.2755,0.2835,0.2888,0.2978,0.3043,0.3119,0.3184,0.323,0.3266,0.3236,0.3377,0.3339,0.3275,0.3269,0.3063,0.3034,0.341,0.341,0.3409,0.3409,0.3409,0,0.2533,0.2549,0.2597,0.2607,0.265,0.2699,0.2768,0.2823,0.2928,0.2992,0.3077,0.3148,0.3236,0.3319,0.3321,0.336,0.3434,0.3305,0.3303,0.3068,0.3039,0.3301,0.3286,0.3413,0.3412,0.3411,0.3411,0,0.2486,0.2519,0.2546,0.2608,0.2636,0.2667,0.2781,0.2829,0.2941,0.3037,0.3075,0.3226,0.3329,0.3394,0.3476,0.3439,0.3462,0.344,0.3151,0.3113,0.33,0.3287,0.3404,0.3402,0.3401,0.3399,0.3398,0,0.246,0.2471,0.2533,0.2556,0.2588,0.2652,0.2698,0.2816,0.2874,0.306,0.31,0.3259,0.332,0.3442,0.34,0.3408,0.3458,0.3153,0.3036,0.3319,0.3305,0.3294,0.3283,0.2782,0.2776,0.2771,0.2767,0,0.2414,0.2441,0.2461,0.2511,0.2559,0.2606,0.2685,0.272,0.2846,0.2946,0.3051,0.3123,0.3254,0.3155,0.3187,0.3141,0.3132,0.3053,0.3452,0.2817,0.2739,0.2724,0.2732,0.2723,0.2728,0.2731,0.2733,0.2735,0.2389,0.2387,0.2418,0.2464,0.251,0.2518,0.2513,0.2587,0.2651,0.2726,0.2879,0.2909,0.296,0.2884,0.2786,0.2708,0.2923,0.2772,0.2784,0.2803,0.2704,0.2627,0.2571,0.2575,0.2578,0.258,0.2582,0,0.2328,0.2344,0.237,0.2392,0.2368,0.2446,0.2472,0.2421,0.2409,0.2521,0.2591,0.241,0.2376,0.2425,0.2242,0.223,0.2175,0.2128,0.2037,0.2084,0.2125,0.1988,0.1667,0.1664,0.1661,0.1658,0,0,0.2309,0.2286,0.2289,0.2233,0.2246,0.219,0.2165,0.2113,0.2143,0.2094,0.2106,0.2309,0.2386,0.2013,0.1953,0.1781,0.1912,0.1703,0.2447,0.239,0.2427,0.2517,0.2362,0,0,0,0,0]},{"header":{"parameterUnit":"m.s-1","parameterCategory":2,"la1":30.2991,"la2":30.254,"lo1":-89.0895,"lo2":-89.0444,"dy":0.0017,"dx":0.0017,"nx":28,"ny":28,"refTime":"2026-01-06T03:00:00:Z","depth":"2","parameterNumber":3,"parameterNumberName":"V-component_of_CURRENTS"},"data":[0,0,0,0,0,0,0,0,0,0,0,0,0,0,0,0,0,0,0,0,0,0,0,0,0,0,0,0,0,0,0,0,0,0,0,0,0,0,0,0,0,0,0,0,0,0,0,0,0,0,0,0,0,0,0,0,0,0,0.031,0.031,0,0.0296,0.0295,0.0295,0.0279,0.0279,0.0279,0.0279,0.0237,0.0236,0.0235,0,0,0,0,0,0,0,0,0,0,0,0,0,0.0267,0.0268,0.031,0.031,0.031,0.0296,0.0295,0.0295,0.0279,0.0279,0.0279,0.0279,0.0237,0.0236,0.0235,0,0,0,0,0,0,0,0,0,0,0,0,0,0.0271,0.0268,0.031,0.0302,0.0301,0.0296,0.0295,0.0295,0.0279,0.0279,0.0279,0.0279,0.0238,0.0236,0.0235,0.0227,0,0,0.023,0.0229,0,0,0,0,0,0,0,0,0.0271,0.0272,0.0303,0.0302,0.0301,0.0291,0.0265,0.0271,0.0279,0.0285,0.0279,0.0279,0.0254,0.0251,0.0246,0.0225,0.0223,0.023,0.0229,0.0228,0.0227,0,0,0,0,0,0,0,0.027,0.0272,0.0302,0.0303,0.0302,0.0279,0.028,0.0265,0.0268,0.0285,0.0284,0.0285,0.0253,0.0248,0.0245,0.0222,0.023,0.0228,0.0227,0.0227,0.02,0.02,0,0,0,0,0,0,0.0279,0.0273,0.0303,0.0302,0.0287,0.028,0.0281,0.0293,0.0269,0.0266,0.0286,0.0285,0.025,0.0247,0.0243,0.0247,0.0228,0.0226,0.0226,0.0199,0.02,0.02,0,0,0,0,0,0,0.0278,0.0282,0.0304,0.0288,0.0289,0.0282,0.0294,0.0292,0.0291,0.027,0.0266,0.0287,0.025,0.0245,0.0239,0.0245,0.0226,0.0224,0.0199,0.02,0.02,0.0246,0,0,0,0,0,0,0.0277,0.0283,0.0288,0.0289,0.029,0.0307,0.0295,0.0292,0.0293,0.0291,0.027,0.0266,0.025,0.0241,0.0237,0.0243,0.0223,0.0199,0.0199,0.02,0.0244,0.0248,0.0251,0,0,0,0,0,0.0276,0.0289,0.0289,0.0292,0.0301,0.0308,0.0307,0.0299,0.0293,0.0296,0.0283,0.0266,0.0241,0.024,0.0235,0.0241,0.0199,0.0199,0.02,0.0243,0.0247,0.0251,0,0,0,0,0,0,0.027,0.0289,0.0289,0.0306,0.0309,0.0306,0.0307,0.0303,0.0295,0.0293,0.0271,0.0266,0.0262,0.0245,0.0245,0.0233,0.0216,0.0216,0.025,0.0254,0.0258,0.0274,0.0222,0,0,0,0,0,0.0273,0.0291,0.0299,0.0312,0.0316,0.0312,0.0312,0.031,0.0305,0.0302,0.0287,0.027,0.0259,0.0253,0.0238,0.0234,0.0214,0.0232,0.0236,0.0239,0.0248,0.0227,0.023,0.0202,0.0202,0.0202,0,0,0.0272,0.0286,0.0294,0.0312,0.0312,0.033,0.0311,0.0319,0.033,0.0298,0.0303,0.0282,0.026,0.0256,0.0252,0.0244,0.0235,0.024,0.0243,0.025,0.0228,0.0231,0.0233,0.0202,0.0202,0.0202,0,0,0.0287,0.0295,0.0316,0.0325,0.0336,0.0339,0.0345,0.0346,0.0342,0.0344,0.0324,0.0311,0.0292,0.028,0.0271,0.0284,0.0254,0.0275,0.0307,0.0286,0.0289,0.029,0.0263,0.0262,0.0278,0.0278,0.0278,0,0.0284,0.0319,0.032,0.0343,0.0357,0.0349,0.0375,0.0371,0.0368,0.0369,0.0352,0.0329,0.0305,0.0308,0.0309,0.0293,0.0274,0.0294,0.0292,0.0293,0.0294,0.0266,0.0264,0.028,0.028,0.0279,0.0279,0,0.0319,0.0343,0.0356,0.039,0.0401,0.0422,0.0426,0.0428,0.0421,0.0418,0.0413,0.038,0.0368,0.0354,0.0334,0.0333,0.0313,0.0298,0.0284,0.03,0.0268,0.0266,0.0283,0.0282,0.0282,0.0281,0,0,0.0329,0.0375,0.038,0.0408,0.0432,0.0451,0.0465,0.0485,0.0506,0.0479,0.0498,0.0461,0.044,0.0428,0.0397,0.0376,0.0356,0.0343,0.0341,0.0321,0.0306,0.0274,0.0268,0.0341,0.0341,0.0341,0.0278,0,0.036,0.042,0.0431,0.0486,0.0521,0.0519,0.0542,0.0552,0.0551,0.0563,0.0521,0.0525,0.047,0.0467,0.0435,0.0387,0.0353,0.0374,0.0289,0.0286,0.0261,0.0266,0.0284,0.0229,0.0276,0.0275,0.0275,0,0.0396,0.0438,0.0499,0.0555,0.0569,0.0595,0.0639,0.0658,0.0662,0.066,0.0644,0.0612,0.0581,0.0529,0.0444,0.0461,0.0385,0.0335,0.0331,0.0287,0.0251,0.0221,0.0222,0.027,0.0271,0.0271,0.0271,0,0.0426,0.0486,0.0543,0.0562,0.0618,0.0639,0.0667,0.0687,0.0727,0.0725,0.0754,0.0694,0.0687,0.0586,0.0468,0.0459,0.0369,0.0343,0.0238,0.0235,0.0227,0.0223,0.027,0.0271,0.0271,0.0271,0.0271,0,0.0467,0.0511,0.0563,0.0596,0.0669,0.0684,0.0759,0.0769,0.0812,0.0882,0.0811,0.0845,0.0702,0.0629,0.05,0.0366,0.0387,0.0246,0.022,0.0242,0.024,0.0259,0.0258,0.0269,0.0269,0.0269,0.027,0,0.0495,0.0526,0.0597,0.0661,0.0687,0.0739,0.0835,0.0898,0.0918,0.1005,0.1012,0.0969,0.0878,0.0715,0.0558,0.0425,0.0286,0.0224,0.0254,0.0231,0.0155,0.0158,0.0111,0.0109,0.0108,0.0107,0.0106,0,0.0517,0.0557,0.0646,0.0701,0.0734,0.0819,0.0894,0.0946,0.1027,0.1091,0.1146,0.1075,0.105,0.0795,0.0547,0.031,0.0276,0.0155,0.0135,0.0162,0.014,0.0145,0.0149,0.0138,0.0138,0.0137,0.0137,0,0.0561,0.0588,0.0652,0.0767,0.0851,0.096,0.1066,0.1144,0.1222,0.1292,0.1357,0.1333,0.1097,0.0863,0.0523,0.0356,0.0193,0.0137,0.0166,0.0176,0.0183,0.0163,0.0168,0.0133,0.0133,0.0133,0.0134,0.0134,0.0593,0.0645,0.0731,0.0843,0.0948,0.1085,0.1184,0.1303,0.1432,0.1533,0.1501,0.1468,0.1194,0.0768,0.0477,0.0163,0.0181,0.0063,0.0067,0.0071,0.0085,0.009,0.0024,0.0024,0.0024,0.0024,0.0023,0,0.0642,0.0706,0.0808,0.0944,0.1069,0.112,0.1296,0.1395,0.1547,0.1621,0.1659,0.1388,0.1127,0.0808,0.0353,0.0081,0.0063,-0.0018,0.0029,0.0035,0.004,0.0054,-0.0017,-0.0018,-0.0018,-0.0019,0,0,0.067,0.077,0.0823,0.1022,0.1127,0.1298,0.1401,0.1533,0.1618,0.1677,0.1656,0.1598,0.1222,0.0883,0.0513,0.0254,0.0204,0.0192,0.0253,0.0357,0.0366,0.0113,0.0144,0,0,0,0,0]}],[{"header":{"parameterUnit":"m.s-1","parameterCategory":2,"la1":30.2991,"la2":30.254,"lo1":-89.0895,"lo2":-89.0444,"dy":0.0017,"dx":0.0017,"nx":28,"ny":28,"refTime":"2026-01-06T03:00:00:Z","depth":"4","parameterNumber":2,"parameterNumberName":"U-component_of_CURRENTS"},"data":[0,0,0,0,0,0,0,0,0,0,0,0,0,0,0,0,0,0,0,0,0,0,0,0,0,0,0,0,0,0,0,0,0,0,0,0,0,0,0,0,0,0,0,0,0,0,0,0,0,0,0,0,0,0,0,0,0,0,0.1632,0.1633,0,0.1705,0.1705,0.1706,0.1756,0.1756,0.1757,0.1758,0.1798,0.1799,0.1799,0,0,0,0,0,0,0,0,0,0,0,0,0,0.1543,0.1544,0.1632,0.1633,0.1634,0.1705,0.1705,0.1706,0.1755,0.1756,0.1757,0.1758,0.1798,0.1799,0.1799,0,0,0,0,0,0,0,0,0,0,0,0,0,0.1592,0.1545,0.1632,0.167,0.1674,0.1705,0.1705,0.1706,0.1755,0.1756,0.1757,0.1758,0.1798,0.1799,0.1799,0.1784,0,0,0.1802,0.1802,0,0,0,0,0,0,0,0,0.1589,0.1595,0.1663,0.1667,0.1672,0.1725,0.169,0.1732,0.1755,0.1721,0.1758,0.1759,0.1772,0.1775,0.1782,0.1786,0.1788,0.1802,0.1802,0.1802,0.1803,0,0,0,0,0,0,0,0.1586,0.1592,0.1657,0.1664,0.167,0.1686,0.1694,0.1698,0.1737,0.1724,0.1729,0.1742,0.1774,0.1782,0.1784,0.1788,0.1802,0.1802,0.1803,0.1803,0.189,0.1892,0,0,0,0,0,0,0.1582,0.1589,0.1655,0.166,0.1636,0.1687,0.1696,0.1704,0.1738,0.1745,0.1741,0.1744,0.178,0.1783,0.1785,0.1858,0.1802,0.1803,0.1803,0.1888,0.189,0.1892,0,0,0,0,0,0,0.158,0.1587,0.1652,0.1629,0.1639,0.1688,0.1697,0.1705,0.175,0.1752,0.1758,0.1781,0.1781,0.1784,0.1825,0.1857,0.1803,0.1804,0.1886,0.1889,0.1891,0.1947,0,0,0,0,0,0,0.1577,0.1586,0.1605,0.1629,0.164,0.1688,0.1697,0.1706,0.1755,0.1761,0.1787,0.179,0.1782,0.1824,0.1825,0.1857,0.1805,0.1883,0.1887,0.189,0.1942,0.1951,0.1958,0,0,0,0,0,0.1573,0.1589,0.1605,0.1614,0.166,0.169,0.1697,0.1733,0.1757,0.1776,0.1804,0.1791,0.1848,0.1826,0.1827,0.186,0.1882,0.1886,0.189,0.1939,0.1949,0.1958,0,0,0,0,0,0,0.1561,0.1596,0.1615,0.1642,0.1674,0.17,0.1728,0.1753,0.1791,0.1809,0.1811,0.1815,0.1864,0.1857,0.1833,0.1898,0.1864,0.1869,0.1901,0.1911,0.1919,0.1916,0.1805,0,0,0,0,0,0.1567,0.1591,0.1623,0.1649,0.1669,0.1706,0.1731,0.1757,0.1788,0.1808,0.1828,0.1854,0.1876,0.1891,0.1906,0.1936,0.1938,0.196,0.1968,0.1975,0.1976,0.2018,0.203,0.1906,0.1906,0.1906,0,0,0.157,0.1594,0.1609,0.165,0.168,0.1711,0.1724,0.1771,0.1805,0.1804,0.1864,0.1883,0.1892,0.1931,0.1952,0.1933,0.2013,0.198,0.1986,0.1983,0.2024,0.2036,0.2046,0.1909,0.1909,0.1908,0,0,0.1578,0.1612,0.1633,0.1663,0.1717,0.1739,0.1762,0.1809,0.1841,0.1893,0.1907,0.1949,0.1982,0.1994,0.2003,0.2064,0.2057,0.2077,0.2111,0.2153,0.2163,0.2172,0.2193,0.2204,0.2078,0.2078,0.2078,0,0.1586,0.1612,0.1644,0.1674,0.1706,0.1756,0.1787,0.1824,0.1882,0.1911,0.1923,0.2,0.2009,0.2054,0.208,0.2081,0.21,0.2071,0.2163,0.2171,0.218,0.2199,0.221,0.2082,0.2081,0.2081,0.2081,0,0.1599,0.1636,0.1654,0.1707,0.1743,0.1782,0.1833,0.1884,0.1934,0.1968,0.2041,0.2063,0.2108,0.2122,0.2119,0.2186,0.2179,0.2169,0.2134,0.2195,0.2212,0.2222,0.2086,0.2085,0.2084,0.2083,0,0,0.1575,0.1648,0.166,0.1689,0.1767,0.1792,0.1862,0.1924,0.1976,0.204,0.2099,0.2151,0.218,0.2193,0.2204,0.2237,0.2312,0.2234,0.2235,0.2248,0.2402,0.2245,0.2241,0.2326,0.2328,0.233,0.2391,0,0.1581,0.163,0.1671,0.173,0.176,0.183,0.1882,0.1952,0.2019,0.2089,0.2137,0.2199,0.2202,0.2236,0.2275,0.2308,0.2342,0.2295,0.2347,0.2348,0.2195,0.2248,0.2337,0.2399,0.2401,0.2403,0.2404,0,0.1575,0.1612,0.1664,0.1739,0.176,0.1809,0.1908,0.1966,0.2072,0.2126,0.2206,0.2248,0.2322,0.2311,0.2402,0.2379,0.24,0.2413,0.2416,0.2253,0.2209,0.2326,0.2422,0.242,0.2419,0.2418,0.2417,0,0.1524,0.1604,0.1644,0.1673,0.1767,0.1814,0.1876,0.1983,0.204,0.2164,0.2224,0.231,0.2374,0.2419,0.2467,0.2449,0.2551,0.2524,0.2398,0.2387,0.2485,0.2475,0.2582,0.2582,0.2581,0.2581,0.2581,0,0.1493,0.1532,0.163,0.1652,0.1712,0.1793,0.1874,0.1952,0.2067,0.2134,0.2247,0.2306,0.2412,0.2479,0.2496,0.2479,0.2583,0.2406,0.2394,0.2507,0.2499,0.2492,0.2481,0.2584,0.2583,0.2583,0.2582,0,0.1427,0.1492,0.1545,0.165,0.1689,0.1736,0.1866,0.1917,0.2049,0.2144,0.2188,0.2337,0.2422,0.2497,0.2575,0.2505,0.2506,0.2474,0.2598,0.2591,0.2304,0.2296,0.2322,0.2317,0.2313,0.2309,0.2306,0,0.1393,0.1414,0.1529,0.1561,0.1615,0.1702,0.1756,0.1894,0.195,0.2138,0.2164,0.2307,0.2385,0.2375,0.2462,0.2474,0.2447,0.2422,0.2345,0.2293,0.2279,0.2277,0.2275,0.2299,0.2298,0.2297,0.2296,0,0.1326,0.1382,0.1423,0.1488,0.155,0.1607,0.1698,0.1728,0.1883,0.2023,0.2088,0.2133,0.2225,0.2277,0.2312,0.2315,0.2418,0.2376,0.2384,0.2312,0.2266,0.2256,0.2258,0.2281,0.2283,0.2285,0.2286,0,0.1278,0.1287,0.1347,0.1391,0.1463,0.1483,0.1549,0.1613,0.1687,0.189,0.1909,0.2064,0.2204,0.2196,0.2228,0.222,0.2174,0.2081,0.2104,0.2121,0.2025,0.1935,0.184,0,0,0,0,0,0.1222,0.1211,0.1242,0.1274,0.134,0.1381,0.1492,0.1563,0.172,0.1712,0.1803,0.1876,0.193,0.2015,0.1965,0.2131,0.2179,0.2061,0.2083,0.2199,0.2216,0.2121,0,0,0,0,0,0,0.1173,0.1198,0.1199,0.117,0.1172,0.1225,0.1292,0.1399,0.1406,0.1577,0.1625,0.1746,0.1837,0.1938,0.1924,0.1946,0.1915,0.2157,0.2151,0.219,0.2205,0.2219,0.2127,0,0,0,0,0]},{"header":{"parameterUnit":"m.s-1","parameterCategory":2,"la1":30.2991,"la2":30.254,"lo1":-89.0895,"lo2":-89.0444,"dy":0.0017,"dx":0.0017,"nx":28,"ny":28,"refTime":"2026-01-06T03:00:00:Z","depth":"4","parameterNumber":3,"parameterNumberName":"V-component_of_CURRENTS"},"data":[0,0,0,0,0,0,0,0,0,0,0,0,0,0,0,0,0,0,0,0,0,0,0,0,0,0,0,0,0,0,0,0,0,0,0,0,0,0,0,0,0,0,0,0,0,0,0,0,0,0,0,0,0,0,0,0,0,0,0.0257,0.0257,0,0.0251,0.0251,0.0251,0.0249,0.0249,0.0249,0.0249,0.0231,0.0231,0.023,0,0,0,0,0,0,0,0,0,0,0,0,0,0.0226,0.0227,0.0257,0.0257,0.0257,0.0251,0.0251,0.0251,0.0249,0.0249,0.0249,0.0249,0.0231,0.0231,0.023,0,0,0,0,0,0,0,0,0,0,0,0,0,0.0231,0.0227,0.0257,0.0256,0.0256,0.0251,0.0251,0.0251,0.0249,0.0249,0.0249,0.0249,0.0232,0.0231,0.023,0.0221,0,0,0.0227,0.0227,0,0,0,0,0,0,0,0,0.0231,0.0232,0.0256,0.0256,0.0256,0.0252,0.0233,0.0241,0.0249,0.0251,0.0249,0.0249,0.0237,0.0236,0.0233,0.0221,0.022,0.0227,0.0227,0.0226,0.0226,0,0,0,0,0,0,0,0.0231,0.0232,0.0254,0.0256,0.0256,0.0242,0.0243,0.0234,0.0242,0.0251,0.0251,0.0251,0.0237,0.0234,0.0233,0.0219,0.0227,0.0226,0.0226,0.0225,0.0212,0.0212,0,0,0,0,0,0,0.0235,0.0232,0.0254,0.0254,0.0244,0.0242,0.0244,0.0252,0.0243,0.0242,0.0251,0.0251,0.0236,0.0234,0.0232,0.0241,0.0226,0.0225,0.0225,0.0212,0.0212,0.0212,0,0,0,0,0,0,0.0235,0.0237,0.0255,0.0243,0.0244,0.0243,0.0253,0.0252,0.0256,0.0243,0.0242,0.0256,0.0236,0.0234,0.0234,0.024,0.0225,0.0224,0.0212,0.0212,0.0212,0.0246,0,0,0,0,0,0,0.0234,0.0237,0.0244,0.0244,0.0245,0.0259,0.0253,0.0252,0.0256,0.0256,0.0247,0.0245,0.0236,0.0235,0.0233,0.0238,0.0224,0.0211,0.0212,0.0212,0.0245,0.0247,0.0249,0,0,0,0,0,0.0233,0.0242,0.0244,0.0247,0.0255,0.0259,0.0258,0.0257,0.0256,0.026,0.0256,0.0246,0.0235,0.0235,0.0232,0.0237,0.0211,0.0212,0.0212,0.0243,0.0247,0.0249,0,0,0,0,0,0,0.0229,0.0243,0.0245,0.0258,0.0261,0.0259,0.0262,0.0261,0.026,0.0262,0.025,0.0248,0.0249,0.0238,0.0237,0.0233,0.0221,0.0221,0.0245,0.0248,0.0251,0.0261,0.0223,0,0,0,0,0,0.0232,0.0246,0.0252,0.0262,0.0265,0.0265,0.0266,0.0267,0.0266,0.0266,0.026,0.0252,0.0247,0.0245,0.0237,0.0236,0.0214,0.0236,0.0238,0.0241,0.0247,0.0219,0.022,0.0214,0.0213,0.0213,0,0,0.0232,0.0242,0.0249,0.0263,0.0264,0.0277,0.0266,0.0273,0.0283,0.0264,0.0274,0.0262,0.0248,0.0249,0.0248,0.0242,0.0229,0.0241,0.0243,0.0248,0.022,0.022,0.0221,0.0214,0.0214,0.0214,0,0,0.0242,0.0251,0.0266,0.0273,0.0283,0.0286,0.0291,0.0294,0.0295,0.0301,0.0289,0.0283,0.0275,0.0267,0.0261,0.0272,0.0243,0.0267,0.0289,0.0263,0.0263,0.0263,0.0228,0.0225,0.0269,0.0269,0.0269,0,0.0241,0.0266,0.0269,0.0285,0.0297,0.0294,0.0313,0.0313,0.0315,0.0318,0.0309,0.0298,0.0284,0.0285,0.0288,0.0278,0.0255,0.028,0.0266,0.0266,0.0265,0.0229,0.0225,0.027,0.027,0.027,0.027,0,0.0264,0.0284,0.0293,0.032,0.0329,0.0345,0.035,0.0355,0.0355,0.0355,0.0354,0.0333,0.0328,0.0318,0.0307,0.03,0.0281,0.0272,0.026,0.0268,0.0229,0.0224,0.0273,0.0272,0.0272,0.0271,0,0,0.0267,0.0304,0.0309,0.0332,0.0352,0.0366,0.038,0.0395,0.0413,0.0398,0.041,0.039,0.0377,0.037,0.0349,0.0324,0.0295,0.03,0.0298,0.0268,0.0228,0.0202,0.0194,0.0283,0.0282,0.0282,0.02,0,0.0288,0.0332,0.0342,0.0385,0.0411,0.0415,0.0435,0.0445,0.0447,0.0456,0.0425,0.043,0.0397,0.0398,0.0366,0.032,0.0285,0.0318,0.0223,0.022,0.0198,0.0189,0.0281,0.0196,0.0195,0.0194,0.0194,0,0.031,0.0342,0.0389,0.0436,0.0447,0.047,0.0507,0.0524,0.0527,0.0527,0.0515,0.0492,0.046,0.0429,0.0342,0.0365,0.03,0.0253,0.0249,0.0212,0.0186,0.0187,0.0184,0.0185,0.0186,0.0186,0.0187,0,0.0325,0.0375,0.0419,0.0434,0.0482,0.0502,0.0529,0.0547,0.0578,0.0575,0.0591,0.0541,0.0527,0.0441,0.0341,0.0342,0.0235,0.0224,0.0134,0.0131,0.0165,0.0166,0.0154,0.0154,0.0154,0.0154,0.0154,0,0.0349,0.0384,0.0433,0.0459,0.0519,0.0537,0.06,0.061,0.064,0.0684,0.0635,0.0643,0.0531,0.0456,0.0353,0.0227,0.0239,0.0135,0.0109,0.0179,0.0183,0.0161,0.0162,0.0151,0.0152,0.0152,0.0153,0,0.0361,0.039,0.0447,0.0506,0.053,0.0575,0.0658,0.0706,0.0721,0.0771,0.0774,0.0722,0.0623,0.0492,0.0348,0.0253,0.0129,0.0078,0.0155,0.0136,0.0038,0.0042,-0.0027,-0.0029,-0.003,-0.0031,-0.0032,0,0.0373,0.0403,0.0483,0.053,0.0562,0.0638,0.0701,0.0745,0.0797,0.082,0.0843,0.0763,0.0708,0.0485,0.0339,0.0125,0.0094,0.0019,0.0031,0.0038,0.002,0.0027,0.0033,-0.0034,-0.0034,-0.0035,-0.0035,0,0.0395,0.0423,0.0474,0.0571,0.0644,0.0733,0.0815,0.0857,0.0909,0.0921,0.09,0.0784,0.0667,0.0487,0.0315,0.0165,0.0063,0.0005,0.0007,0.0017,0.0028,0.0013,0.0021,-0.004,-0.0039,-0.0039,-0.0038,0,0.0414,0.0451,0.0523,0.061,0.0704,0.0796,0.0843,0.0902,0.0948,0.0959,0.0947,0.0818,0.0743,0.0506,0.0352,0.0195,0.0155,0.0099,0.0095,0.0099,0.0155,0.0189,0.0147,0,0,0,0,0,0.0432,0.0479,0.056,0.0656,0.0753,0.0812,0.0908,0.0949,0.0991,0.0983,0.0966,0.0853,0.0624,0.0528,0.0367,0.0319,0.0122,0.0122,0.0054,-0.0065,-0.006,-0.0017,0,0,0,0,0,0,0.0442,0.0516,0.0558,0.0681,0.0754,0.0868,0.0932,0.0966,0.0959,0.0968,0.0851,0.0797,0.0577,0.0715,0.0358,0.0311,0.0241,0.0019,0.0015,-0.0068,-0.0064,-0.0059,-0.0014,0,0,0,0,0]}]]